Powrót do katalogu

ONEWEB-0215

AktywnyŁącznośćPO
NORAD 48800·PAYLOAD·🇬🇧 United Kingdom

Wystrzelony May 28, 2021 z Vostochny Cosmodrome

Loading…

Następne Przeloty (najbliższe 24 godziny)

TLE

ŚwieżeSource: CelesTrak SupGP

Epoka: Sep 14, 2026, 13:39 UTC

1 48800C 21045AK  26257.56889306 -.00002124  00000+0 -56475-2 0  2575
2 48800  87.8996 241.3655 0002209  67.5035  31.7507 13.15554698    15

Śledź ONEWEB-0215 w czasie rzeczywistym z AllMySat

Download on the App Store